KF5VOI Weather Reports


Display with metric or nautical units.
time (UTC)temp
F
wind
direction
speed
MPH
gust
MPH
rain 1hr
in
rain 24hr
in
rain mn
in
humidity
%
barometer
mb
20260504185634 80 141 2.0 7.0 0.00 0.00 0.00 45 1018.7
20260504182634 83 150 1.0 10.0 0.00 0.00 0.00 43 1019.0
20260504045634 61 0 0.0 0.0 0.00 0.00 0.00 81 1021.1
20260504042636 62 0 0.0 0.0 0.00 0.00 0.00 81 1021.3
20260504035634 63 0 0.0 0.0 0.00 0.00 0.00 83 1020.9
20260504032635 63 0 0.0 0.0 0.00 0.00 0.00 80 1021.1
20260504025635 64 0 0.0 0.0 0.00 0.00 0.00 76 1020.9
20260504022635 65 0 0.0 0.0 0.00 0.00 0.00 70 1020.6
20260504015635 67 0 0.0 0.0 0.00 0.00 0.00 67 1020.3
20260504012635 67 0 0.0 0.0 0.00 0.00 0.00 57 1020.0
20260504005634 71 0 0.0 0.0 0.00 0.00 0.00 51 1019.9
20260504002635 74 0 0.0 0.0 0.00 0.00 0.00 46 1019.7
20260503235635 80 0 0.0 0.0 0.00 0.00 0.00 41 1019.7
20260503232637 81 0 0.0 0.0 0.00 0.00 0.00 40 1020.0
20260503225634 82 0 0.0 0.0 0.00 0.00 0.00 39 1020.1
20260503222634 83 0 0.0 0.0 0.00 0.00 0.00 38 1020.2
20260503215634 81 0 0.0 0.0 0.00 0.00 0.00 38 1020.6
20260503212635 81 0 0.0 0.0 0.00 0.00 0.00 37 1021.0
20260503205634 81 270 0.0 4.0 0.00 0.00 0.00 37 1021.4
20260503202634 83 0 0.0 0.0 0.00 0.00 0.00 36 1022.0
20260503195634 82 247 0.0 2.0 0.00 0.00 0.00 36 1022.2
20260503192634 81 360 1.0 8.0 0.00 0.00 0.00 38 1022.8